This demonstration page uses our WeatherBlox Daily Observations layout. Learn more.

Left ArrowRight Arrow

38.83388, -104.82136

Hourly Observations for January 5, 2021

Temp ( °F °C ) Dew Point ( °F °C ) Humidity (%) Winds ( mph kmh ) Pressure ( in mb ) Visibility ( mi km ) Precip ( " mm )
12:58 am 00:58 Mostly Clear 46 7.5 15 -9.6 29 29 SSW 8 13 29.55 1001 10 16 0.00 0.00
1:58 am 01:58 Clear 45 7 16 -9 31 31 SSE 8 13 29.55 1001 10 16 0.00 0.00
2:58 am 02:58 Clear 43 6 16 -9.1 33 33 SW 5 7 29.55 1001 10 16 0.00 0.00
3:58 am 03:58 Clear 39 4 20 -6.7 46 46 S 3 6 29.55 1001 10 16 0.00 0.00
4:58 am 04:58 Clear 40 4.2 19 -7 44 44 Calm 29.56 1001 10 16 0.00 0.00
5:58 am 05:58 Clear 39 4 19 -7.3 44 44 NW 7 11 29.52 1000 10 16 0.00 0.00
6:58 am 06:58 Clear 40 4.5 18 -7.7 41 41 Calm 29.54 1000 10 16 0.00 0.00
7:58 am 07:58 Sunny 41 4.9 18 -7.8 40 40 Calm 29.55 1001 10 16 0.00 0.00
8:58 am 08:58 Sunny 49 9.6 17 -8.1 28 28 Calm 29.52 1000 10 16 0.00 0.00
9:58 am 09:58 Mostly Sunny 54 12.3 19 -7.5 25 25 Calm 29.49 999 10 16 0.00 0.00
10:58 am 10:58 Mostly Sunny 55 13 17 -8.3 22 22 Calm 29.44 997 10 16 0.00 0.00
11:28 am 11:28 Mostly Sunny 52 11 10 -12 19 19 NNW 14 22 29.42 996 10 16 0.00 0.00
11:58 am 11:58 Mostly Sunny 51 10.8 10 -12 19 19 N 10 17 29.42 996 10 16 0.00 0.00
12:50 pm 12:50 Mostly Cloudy 48 9 14 -10 25 25 NNE 12 19 29.40 996 10 16 0.00 0.00
12:58 pm 12:58 Mostly Cloudy 48 8.7 14 -9.8 26 26 N 9 15 29.39 995 10 16 0.00 0.00
1:58 pm 13:58 Sunny 49 9.7 9 -12.8 19 19 N 5 7 29.39 995 10 16 0.00 0.00
2:58 pm 14:58 Sunny 47 8.5 11 -11.7 23 23 NW 7 11 29.44 997 10 16 0.00 0.00
3:58 pm 15:58 Sunny 41 5 12 -11 31 31 NW 13 20 29.53 1000 10 16 0.00 0.00
4:58 pm 16:58 Mostly Clear 41 4.9 4 -15.3 22 22 NNW 14 22 29.56 1001 10 16 0.00 0.00
5:58 pm 17:58 Cloudy 39 3.9 3 -16 22 22 NNW 16 26 29.62 1003 10 16 0.00 0.00
6:58 pm 18:58 Cloudy 35 1.9 2 -16.5 24 24 NNW 12 19 29.68 1005 10 16 0.00 0.00
7:58 pm 19:58 Mostly Clear 32 -0.2 21 -6 65 65 NNW 16 26 29.73 1007 10 16 0.00 0.00
8:58 pm 20:58 Partly Cloudy 32 -0.1 12 -11.1 44 44 NNW 15 24 29.72 1006 10 16 0.00 0.00
9:58 pm 21:58 Mostly Cloudy 28 -2.3 20 -6.7 72 72 NW 15 24 29.74 1007 10 16 0.00 0.00
10:58 pm 22:58 Mostly Clear 29 -1.7 15 -9.3 57 57 NNW 10 17 29.75 1008 10 16 0.00 0.00
11:58 pm 23:58 Cloudy 28 -2 15 -9.5 57 57 NW 7 11 29.81 1010 10 16 0.00 0.00

Powered by AerisWeather